TimeCST,TemperatureF,Dew PointF,Humidity,Sea Level PressureIn,VisibilityMPH,Wind Direction,Wind SpeedMPH,Gust SpeedMPH,PrecipitationIn,Events,Conditions,WindDirDegrees,DateUTC
12:56 AM,19.9,10.9,68,30.32,10.0,NNW,8.1,-,0.00,,Overcast,330,2012-11-24 06:56:00
1:56 AM,19.0,10.0,68,30.32,10.0,North,6.9,-,N/A,,Overcast,360,2012-11-24 07:56:00
2:56 AM,18.0,8.1,65,30.33,10.0,NNW,9.2,-,N/A,,Overcast,330,2012-11-24 08:56:00
3:56 AM,16.0,8.1,71,30.31,10.0,NNW,4.6,-,N/A,,Overcast,340,2012-11-24 09:56:00
4:56 AM,15.1,8.1,74,30.31,10.0,Calm,Calm,-,N/A,,Overcast,0,2012-11-24 10:56:00
5:56 AM,16.0,8.1,71,30.31,10.0,Calm,Calm,-,N/A,,Overcast,0,2012-11-24 11:56:00
6:56 AM,15.1,8.1,74,30.30,10.0,NNW,3.5,-,N/A,,Overcast,340,2012-11-24 12:56:00
7:56 AM,16.0,9.0,74,30.30,10.0,NW,3.5,-,N/A,,Overcast,310,2012-11-24 13:56:00
8:56 AM,16.0,9.0,74,30.29,10.0,South,3.5,-,N/A,,Overcast,190,2012-11-24 14:56:00
9:56 AM,18.0,10.0,71,30.27,10.0,Calm,Calm,-,N/A,,Mostly Cloudy,0,2012-11-24 15:56:00
10:18 AM,19.4,10.4,68,30.21,10.0,Variable,3.5,-,N/A,,Scattered Clouds,0,2012-11-24 16:18:00
10:56 AM,19.9,10.0,65,30.23,10.0,SSW,4.6,-,N/A,,Clear,200,2012-11-24 16:56:00
11:56 AM,21.9,10.9,63,30.20,10.0,South,3.5,-,N/A,,Clear,180,2012-11-24 17:56:00
12:56 PM,24.1,10.9,57,30.14,10.0,Calm,Calm,-,N/A,,Clear,0,2012-11-24 18:56:00
1:56 PM,27.0,10.9,51,30.10,10.0,SSE,5.8,-,N/A,,Partly Cloudy,150,2012-11-24 19:56:00
2:56 PM,28.0,10.9,49,30.06,10.0,SE,8.1,-,N/A,,Overcast,140,2012-11-24 20:56:00
3:56 PM,27.0,10.9,51,30.03,10.0,South,10.4,-,N/A,,Overcast,170,2012-11-24 21:56:00
4:56 PM,27.0,12.0,53,30.01,10.0,South,5.8,-,N/A,,Overcast,170,2012-11-24 22:56:00
5:56 PM,28.0,12.0,51,29.98,10.0,SSE,8.1,-,N/A,,Overcast,150,2012-11-24 23:56:00
6:56 PM,28.0,12.9,53,29.96,10.0,SSE,9.2,-,N/A,,Overcast,150,2012-11-25 00:56:00
7:56 PM,28.0,14.0,56,29.91,10.0,South,10.4,-,N/A,,Overcast,170,2012-11-25 01:56:00
8:56 PM,28.9,15.1,56,29.90,10.0,South,10.4,-,0.00,,Overcast,180,2012-11-25 02:56:00
9:56 PM,28.9,16.0,58,29.88,10.0,South,8.1,-,N/A,,Overcast,190,2012-11-25 03:56:00
10:56 PM,28.9,17.1,61,29.86,10.0,SSW,8.1,-,N/A,,Overcast,210,2012-11-25 04:56:00
11:56 PM,28.9,17.1,61,29.84,10.0,SSW,8.1,-,N/A,,Overcast,210,2012-11-25 05:56:00